loading
|

MIDAS 4 DEB, 195

Orbit data source: Space-Track

MIDAS 4 DEB, 195 is space debris originally from a launch on Sat, 21 Oct 1961 UTC launched from the Air Force Western Test Range (AFWTR). Debris objects in space refer to the collection of defunct objects orbiting the Earth. Examples of debris include non-operational satellites, rocket bodies, and fragments generated from explosions, collisions, or faulty payload assembly.

Loading next visibility...
Loading greatness...
MIDAS 4 DEB details
Identifier
195, 1961-028D
Orbit
Active
Last TLE update21 hours ago
Origin
Flag of USUSAF SSD (US)
ManufacturerUnknown
Mission statusUnknown
MissionUnknown
Bus & MotorUnknown
Mass~10 kg wet, ~10 kg dry
Launch date (UTC)
1961-10-21 (63 years ago)
Launch vehicleUnknown
Launch site
Air Force Western Test Range (AFWTR)
Object type
Payload
Rocket body
Debris
Radar Cross SectionMedium (>0.1 m² and <1 m²)

Expand to show TLE details & history

TLE from 21 hours ago
0 MIDAS 4 DEB
1 00195U 61028D   24258.47295300  .00000025  00000-0  13424-1 0  9995
2 00195  95.8655  70.1726 0121822 330.4098  28.9902  8.65615433987613
Epoch: 2024-09-14T11:21Z
Definitive object data (Epoch: 2024-09-14T11:21:03.139Z)
Latitude0.00006°
Longitude-94.02065°
Altitude3,537.224 km
Speed6.375 km/s
True Right ascension04h 40m 41s
True Declination0° 00' 00"
Sunlit
Object was in daylight at TLE epoch
Predictive object data (real-time)
Latitude8.30144°
Longitude87.01593°
Altitude3,755.914 km
Speed6.237 km/s
Apparent Right ascension15h 29m 36s
Apparent Declination-11° 13' 22"
Sunlit
Object is in daylight
Predictive observer data (real-time)
Local Sidereal Time00:44:24
Azimuth296.557° NW
Elevation-43.636°
Doppler factor1
Orbital elements
Apogee3,761.409 km
Perigee3,517.339 km
Semi-major axis10,017.511 km
Eccentricity0.0121822
Inclination95.8655°
RAAN70.1726°
Arg. of periapsis330.4098°
True anomaly29.67589°
Mean anomaly28.9902°
Eccentric anomaly29.33212°
Mean motion2.16473 °/min
BSTAR0.013424
Period166.3 mins
No data available

MIDAS 4 DEB Visibility forecast

Observer location: 39.9160978°, -105.1181434

MIDAS 4 DEB is not visible in the next 10 days
Span
Click to sort rows by Start time (UTC) header in descending order
Start Az.
Max El. time (UTC)
Max El. Az.
Max El.
End time (UTC)
End Az.